[[{"header":{"parameterUnit":"m.s-1","parameterCategory":1,"la1":30.2991,"la2":30.254,"lo1":-89.0895,"lo2":-89.0444,"dy":0.0017,"dx":0.0017,"nx":28,"ny":28,"refTime":"2024-10-08T21:00:00:Z","depth":0,"parameterNumber":2,"parameterNumberName":"U-component_of_WINDS"},"data":[0,0,0,0,0,0,0,0,0,0,0,0,0,0,0,0,0,0,0,0,0,0,0,0,0,0,0,0,0,0,0,0,0,0,0,0,0,0,0,0,0,0,0,0,0,0,0,0,0,0,0,0,0,0,0,0,0,0,-0.6946,-0.6947,0,-0.7006,-0.7006,-0.7007,-0.6977,-0.6975,-0.6973,-0.6972,-0.7036,-0.7039,-0.7042,0,0,0,0,0,0,0,0,0,0,0,0,0,-0.6808,-0.6811,-0.6946,-0.6947,-0.6948,-0.7006,-0.7006,-0.7007,-0.6977,-0.6975,-0.6973,-0.6971,-0.7035,-0.7039,-0.7042,0,0,0,0,0,0,0,0,0,0,0,0,0,-0.6868,-0.6812,-0.6946,-0.6939,-0.6939,-0.7006,-0.7007,-0.7008,-0.6977,-0.6975,-0.6973,-0.697,-0.7034,-0.7038,-0.7043,-0.712,0,0,-0.7058,-0.706,0,0,0,0,0,0,0,0,-0.6865,-0.6873,-0.694,-0.694,-0.694,-0.6981,-0.6981,-0.7045,-0.6978,-0.6963,-0.6972,-0.6969,-0.702,-0.7026,-0.7042,-0.7123,-0.7126,-0.7058,-0.7061,-0.7063,-0.7064,0,0,0,0,0,0,0,-0.6861,-0.687,-0.697,-0.6941,-0.6941,-0.6934,-0.694,-0.6993,-0.7004,-0.6964,-0.6962,-0.6969,-0.702,-0.7038,-0.7043,-0.7127,-0.7058,-0.7062,-0.7065,-0.7067,-0.7274,-0.7276,0,0,0,0,0,0,-0.6856,-0.6867,-0.6968,-0.6972,-0.6896,-0.6939,-0.6945,-0.6971,-0.7003,-0.7006,-0.6971,-0.6968,-0.7031,-0.7038,-0.7046,-0.7139,-0.7063,-0.7067,-0.707,-0.7271,-0.7274,-0.7277,0,0,0,0,0,0,-0.6854,-0.6866,-0.6966,-0.6919,-0.6931,-0.6943,-0.6972,-0.6973,-0.6991,-0.7009,-0.7011,-0.6988,-0.7029,-0.7039,-0.7101,-0.714,-0.707,-0.7074,-0.7268,-0.7272,-0.7276,-0.7325,0,0,0,0,0,0,-0.685,-0.6865,-0.6894,-0.692,-0.6934,-0.702,-0.6975,-0.6976,-0.6999,-0.6995,-0.7025,-0.7027,-0.7028,-0.7095,-0.7106,-0.7146,-0.7078,-0.7265,-0.727,-0.7274,-0.732,-0.733,-0.7339,0,0,0,0,0,-0.6845,-0.6906,-0.6896,-0.6908,-0.697,-0.7023,-0.7031,-0.7029,-0.7002,-0.7032,-0.7043,-0.7027,-0.7133,-0.7101,-0.7114,-0.7156,-0.7262,-0.7268,-0.7274,-0.7316,-0.7328,-0.7338,0,0,0,0,0,0,-0.6886,-0.6909,-0.6898,-0.6969,-0.6994,-0.7017,-0.7055,-0.7042,-0.7076,-0.7071,-0.7068,-0.7075,-0.714,-0.7154,-0.7117,-0.7232,-0.7194,-0.7203,-0.7221,-0.7233,-0.7242,-0.7239,-0.7082,0,0,0,0,0,-0.6903,-0.6943,-0.6961,-0.7022,-0.7035,-0.7043,-0.7066,-0.7062,-0.7088,-0.7099,-0.7115,-0.7141,-0.7181,-0.7207,-0.7244,-0.732,-0.7327,-0.7355,-0.7365,-0.7372,-0.7381,-0.7423,-0.7436,-0.7297,-0.7296,-0.7296,0,0,-0.6939,-0.6957,-0.6983,-0.7031,-0.705,-0.7092,-0.7052,-0.7098,-0.713,-0.7106,-0.7166,-0.7179,-0.7208,-0.7278,-0.731,-0.7291,-0.742,-0.738,-0.7386,-0.739,-0.743,-0.7443,-0.7455,-0.7301,-0.73,-0.7299,0,0,-0.7027,-0.7044,-0.7097,-0.7116,-0.7144,-0.7149,-0.7161,-0.7186,-0.7194,-0.7253,-0.7237,-0.7274,-0.7342,-0.7364,-0.7384,-0.7478,-0.7465,-0.749,-0.7541,-0.7581,-0.7592,-0.7602,-0.7637,-0.765,-0.7498,-0.7498,-0.7498,0,-0.707,-0.7132,-0.7126,-0.7174,-0.7196,-0.7174,-0.7228,-0.7247,-0.7287,-0.7303,-0.7281,-0.7366,-0.7384,-0.7459,-0.7482,-0.7498,-0.7514,-0.7488,-0.7591,-0.7601,-0.761,-0.7643,-0.7656,-0.7501,-0.7501,-0.7501,-0.75,0,-0.7182,-0.7226,-0.7265,-0.7303,-0.7329,-0.738,-0.7382,-0.741,-0.7403,-0.741,-0.7471,-0.7492,-0.7533,-0.755,-0.7545,-0.7624,-0.7612,-0.7591,-0.7553,-0.7626,-0.7658,-0.767,-0.7506,-0.7505,-0.7504,-0.7503,0,0,-0.7301,-0.7333,-0.7348,-0.7365,-0.7394,-0.7428,-0.7477,-0.7516,-0.754,-0.7567,-0.761,-0.7667,-0.7647,-0.767,-0.7666,-0.7701,-0.7776,-0.7676,-0.7676,-0.7695,-0.7867,-0.7885,-0.79,-0.7766,-0.7768,-0.777,-0.7865,0,-0.7392,-0.7478,-0.7474,-0.7555,-0.7596,-0.7574,-0.7617,-0.764,-0.7647,-0.7683,-0.7691,-0.7732,-0.7702,-0.7715,-0.7749,-0.776,-0.7811,-0.7753,-0.7807,-0.7809,-0.7803,-0.7916,-0.7935,-0.8023,-0.7877,-0.7879,-0.7881,0,-0.7511,-0.7542,-0.7627,-0.7649,-0.7666,-0.7705,-0.774,-0.7774,-0.7799,-0.7802,-0.7826,-0.7816,-0.7867,-0.7826,-0.7896,-0.7856,-0.7878,-0.7886,-0.789,-0.7897,-0.7851,-0.7928,-0.8051,-0.8066,-0.79,-0.7898,-0.7897,0,-0.7592,-0.7653,-0.7712,-0.7727,-0.7754,-0.7782,-0.7795,-0.7817,-0.7841,-0.7872,-0.7887,-0.7924,-0.7945,-0.7973,-0.7974,-0.7943,-0.8045,-0.8004,-0.805,-0.8051,-0.8075,-0.8074,-0.8206,-0.8085,-0.8085,-0.8085,-0.8084,0,-0.7696,-0.7749,-0.7749,-0.7785,-0.7844,-0.7838,-0.7897,-0.7907,-0.7927,-0.7965,-0.7948,-0.7985,-0.7982,-0.802,-0.802,-0.8079,-0.8088,-0.8092,-0.8092,-0.8095,-0.8095,-0.8111,-0.8106,-0.8088,-0.8087,-0.8087,-0.8086,0,-0.7797,-0.7798,-0.7861,-0.7881,-0.7887,-0.793,-0.7947,-0.7982,-0.7986,-0.8036,-0.8047,-0.8054,-0.8097,-0.81,-0.8149,-0.8149,-0.8221,-0.8213,-0.8213,-0.8213,-0.826,-0.8256,-0.8409,-0.8429,-0.8293,-0.8294,-0.8295,0,-0.7864,-0.7905,-0.7928,-0.7952,-0.7966,-0.8005,-0.8029,-0.8024,-0.805,-0.808,-0.8112,-0.8153,-0.8185,-0.8255,-0.8265,-0.8303,-0.8297,-0.8348,-0.8303,-0.8305,-0.8301,-0.8299,-0.8304,-0.8358,-0.8359,-0.8361,-0.8362,0,-0.7985,-0.7983,-0.8018,-0.8052,-0.8081,-0.8108,-0.8133,-0.8154,-0.8152,-0.8182,-0.8225,-0.825,-0.8299,-0.8341,-0.8377,-0.8391,-0.8377,-0.8375,-0.8388,-0.8393,-0.8392,-0.8395,-0.8239,-0.8372,-0.8371,-0.837,-0.837,-0.8369,-0.8073,-0.8108,-0.813,-0.8169,-0.8186,-0.821,-0.8244,-0.8252,-0.8287,-0.8327,-0.8322,-0.837,-0.8393,-0.844,-0.8457,-0.8495,-0.8478,-0.8496,-0.8501,-0.8507,-0.8513,-0.8383,-0.8501,-0.8501,-0.85,-0.85,-0.85,0,-0.8194,-0.8207,-0.8242,-0.8278,-0.8308,-0.8289,-0.8316,-0.8344,-0.8386,-0.8408,-0.844,-0.8489,-0.8529,-0.8541,-0.858,-0.8608,-0.8602,-0.8618,-0.8618,-0.8621,-0.8525,-0.851,-0.8622,-0.8622,-0.8622,-0.8622,-0.8622,-0.8622,-0.8261,-0.832,-0.832,-0.8388,-0.84,-0.8446,-0.8463,-0.8485,-0.8503,-0.8558,-0.8591,-0.8598,-0.8617,-0.8656,-0.8691,-0.8694,-0.871,-0.8729,-0.873,-0.864,-0.8628,-0.8616,-0.8603,-0.8732,-0.8732,-0.8823,-0.8824,-0.8825]},{"header":{"parameterUnit":"m.s-1","parameterCategory":1,"la1":30.2991,"la2":30.254,"lo1":-89.0895,"lo2":-89.0444,"dy":0.0017,"dx":0.0017,"nx":28,"ny":28,"refTime":"2024-10-08T21:00:00:Z","depth":0,"parameterNumber":3,"parameterNumberName":"V-component_of_WINDS"},"data":[0,0,0,0,0,0,0,0,0,0,0,0,0,0,0,0,0,0,0,0,0,0,0,0,0,0,0,0,0,0,0,0,0,0,0,0,0,0,0,0,0,0,0,0,0,0,0,0,0,0,0,0,0,0,0,0,0,0,-5.2752,-5.2753,0,-5.2873,-5.2875,-5.2876,-5.2813,-5.281,-5.2807,-5.2804,-5.2924,-5.293,-5.2936,0,0,0,0,0,0,0,0,0,0,0,0,0,-5.2462,-5.2467,-5.2752,-5.2753,-5.2755,-5.2873,-5.2875,-5.2876,-5.2814,-5.281,-5.2806,-5.2802,-5.2922,-5.293,-5.2937,0,0,0,0,0,0,0,0,0,0,0,0,0,-5.2586,-5.2469,-5.2751,-5.2738,-5.2738,-5.2873,-5.2875,-5.2877,-5.2815,-5.281,-5.2805,-5.2801,-5.292,-5.2929,-5.2938,-5.3092,0,0,-5.2966,-5.297,0,0,0,0,0,0,0,0,-5.2579,-5.2596,-5.2738,-5.2739,-5.2739,-5.2823,-5.2816,-5.2949,-5.2816,-5.2785,-5.2804,-5.2798,-5.2894,-5.2905,-5.2939,-5.3097,-5.3103,-5.2967,-5.2973,-5.2977,-5.298,0,0,0,0,0,0,0,-5.257,-5.2591,-5.28,-5.274,-5.2741,-5.2724,-5.2737,-5.2841,-5.2865,-5.2788,-5.2783,-5.2799,-5.2894,-5.293,-5.2941,-5.3104,-5.2967,-5.2975,-5.2981,-5.2985,-5.3395,-5.34,0,0,0,0,0,0,-5.2563,-5.2584,-5.2796,-5.2803,-5.2646,-5.2734,-5.2747,-5.2801,-5.2864,-5.2869,-5.2803,-5.2796,-5.2916,-5.293,-5.2945,-5.3129,-5.2977,-5.2986,-5.2991,-5.339,-5.3396,-5.3402,0,0,0,0,0,0,-5.2557,-5.2582,-5.2791,-5.2693,-5.2718,-5.2744,-5.2805,-5.2806,-5.2842,-5.2876,-5.2879,-5.2836,-5.2913,-5.2932,-5.3056,-5.3133,-5.299,-5.2998,-5.3384,-5.3392,-5.3399,-5.35,0,0,0,0,0,0,-5.2549,-5.2581,-5.264,-5.2695,-5.2723,-5.2902,-5.2809,-5.2812,-5.2859,-5.2851,-5.2907,-5.2912,-5.2911,-5.3043,-5.3065,-5.3143,-5.3005,-5.3377,-5.3387,-5.3397,-5.3489,-5.351,-5.3527,0,0,0,0,0,-5.2539,-5.2663,-5.2644,-5.267,-5.2799,-5.2906,-5.2922,-5.292,-5.2865,-5.2925,-5.2946,-5.291,-5.3121,-5.3056,-5.3081,-5.3162,-5.3372,-5.3384,-5.3396,-5.3481,-5.3506,-5.3527,0,0,0,0,0,0,-5.2615,-5.267,-5.2649,-5.2795,-5.2847,-5.2895,-5.297,-5.2946,-5.3013,-5.3002,-5.2994,-5.3008,-5.3137,-5.3162,-5.3089,-5.3314,-5.3238,-5.3255,-5.3294,-5.3318,-5.3336,-5.3328,-5.3013,0,0,0,0,0,-5.265,-5.2734,-5.2776,-5.29,-5.2927,-5.2945,-5.2991,-5.2985,-5.3037,-5.3058,-5.3089,-5.314,-5.3218,-5.3269,-5.3342,-5.3493,-5.3504,-5.3561,-5.358,-5.3595,-5.3611,-5.3692,-5.3718,-5.3442,-5.3441,-5.3441,0,0,-5.272,-5.276,-5.2814,-5.2916,-5.2956,-5.3042,-5.2963,-5.3057,-5.3121,-5.3072,-5.3192,-5.3216,-5.3273,-5.3411,-5.3473,-5.3435,-5.3689,-5.3611,-5.3623,-5.363,-5.3707,-5.3733,-5.3756,-5.345,-5.3448,-5.3447,0,0,-5.2894,-5.2933,-5.3041,-5.3082,-5.3143,-5.3154,-5.318,-5.3233,-5.3247,-5.3368,-5.3333,-5.3407,-5.3541,-5.3583,-5.3622,-5.3812,-5.3781,-5.3835,-5.3935,-5.4014,-5.4036,-5.4055,-5.4123,-5.4147,-5.385,-5.3851,-5.3851,0,-5.2974,-5.3103,-5.3099,-5.3197,-5.3242,-5.3204,-5.3312,-5.3352,-5.3433,-5.3465,-5.3422,-5.359,-5.3625,-5.3773,-5.3819,-5.3852,-5.3881,-5.3829,-5.4033,-5.4053,-5.407,-5.4135,-5.416,-5.3857,-5.3856,-5.3856,-5.3855,0,-5.3199,-5.3289,-5.3369,-5.345,-5.3505,-5.3607,-5.3617,-5.3673,-5.3662,-5.3677,-5.3799,-5.384,-5.3921,-5.3956,-5.3945,-5.4102,-5.4077,-5.4034,-5.3957,-5.4103,-5.4164,-5.4188,-5.3866,-5.3864,-5.3862,-5.386,0,0,-5.3424,-5.3502,-5.3532,-5.3568,-5.3633,-5.3702,-5.3802,-5.3882,-5.393,-5.3987,-5.4071,-5.4185,-5.4146,-5.419,-5.4184,-5.4253,-5.4401,-5.4202,-5.4203,-5.4238,-5.4576,-5.4609,-5.4637,-5.4381,-5.4385,-5.4389,-5.4572,0,-5.3602,-5.378,-5.3778,-5.3942,-5.4025,-5.3989,-5.4076,-5.4125,-5.4141,-5.4213,-5.423,-5.4312,-5.4254,-5.4281,-5.4348,-5.4369,-5.4469,-5.4355,-5.4458,-5.4461,-5.4445,-5.4669,-5.4703,-5.4874,-5.4595,-5.4599,-5.4602,0,-5.3834,-5.39,-5.4073,-5.4125,-5.416,-5.4239,-5.4313,-5.4382,-5.4435,-5.4442,-5.4492,-5.4475,-5.4576,-5.4495,-5.4634,-5.4557,-5.4598,-5.4615,-5.4621,-5.4631,-5.4541,-5.4685,-5.4928,-5.4954,-5.4639,-5.4636,-5.4634,0,-5.3981,-5.4114,-5.4234,-5.4266,-5.433,-5.4387,-5.4416,-5.4465,-5.4513,-5.4577,-5.4608,-5.4683,-5.4724,-5.4781,-5.4783,-5.4725,-5.4923,-5.4843,-5.4931,-5.4931,-5.4975,-5.4972,-5.5229,-5.5001,-5.5001,-5.5,-5.5,0,-5.418,-5.4287,-5.4301,-5.4375,-5.4494,-5.4491,-5.4607,-5.4631,-5.4675,-5.4752,-5.4725,-5.4797,-5.4796,-5.487,-5.4872,-5.4987,-5.5005,-5.5013,-5.5012,-5.5016,-5.5015,-5.5043,-5.5031,-5.5007,-5.5006,-5.5004,-5.5003,0,-5.4365,-5.4379,-5.4508,-5.4559,-5.4574,-5.4659,-5.4702,-5.4771,-5.4785,-5.4883,-5.4906,-5.4928,-5.5013,-5.5021,-5.512,-5.5121,-5.526,-5.5246,-5.5242,-5.524,-5.5328,-5.532,-5.5612,-5.565,-5.5397,-5.54,-5.5402,0,-5.4492,-5.4574,-5.4633,-5.4684,-5.4717,-5.4798,-5.4848,-5.4848,-5.49,-5.4968,-5.5029,-5.5112,-5.5179,-5.5316,-5.534,-5.5415,-5.5403,-5.55,-5.5414,-5.5415,-5.5405,-5.5401,-5.5409,-5.5517,-5.552,-5.5522,-5.5524,0,-5.4715,-5.4718,-5.4792,-5.4868,-5.4929,-5.4989,-5.5044,-5.5087,-5.5093,-5.5154,-5.5241,-5.5293,-5.5394,-5.5477,-5.5551,-5.5579,-5.5553,-5.5551,-5.5575,-5.558,-5.5575,-5.5579,-5.5288,-5.5544,-5.5542,-5.5541,-5.554,-5.5539,-5.4875,-5.4946,-5.5,-5.5082,-5.5125,-5.5178,-5.5246,-5.5269,-5.5343,-5.5426,-5.5421,-5.5518,-5.5569,-5.5666,-5.57,-5.5774,-5.5742,-5.5777,-5.5786,-5.5795,-5.5804,-5.5563,-5.5788,-5.5787,-5.5786,-5.5786,-5.5786,0,-5.5097,-5.513,-5.5206,-5.5286,-5.5351,-5.5322,-5.5382,-5.5438,-5.5524,-5.5575,-5.5641,-5.5742,-5.5821,-5.5852,-5.5929,-5.5983,-5.5974,-5.6004,-5.6,-5.6007,-5.5829,-5.58,-5.6011,-5.6011,-5.6011,-5.6011,-5.6011,-5.6011,-5.522,-5.5339,-5.5348,-5.5487,-5.5519,-5.5615,-5.5652,-5.57,-5.574,-5.5854,-5.5921,-5.5941,-5.5983,-5.6064,-5.6135,-5.6142,-5.6172,-5.6208,-5.6209,-5.6042,-5.6019,-5.5998,-5.5971,-5.6214,-5.6214,-5.6381,-5.6383,-5.6384]}]]